FW6437 Weather Reports


Display with metric or nautical units.
time (UTC)temp
F
wind
direction
speed
MPH
gust
MPH
rain 1hr
in
rain 24hr
in
rain mn
in
humidity
%
barometer
mb
20260502130705 50 332 2.0 9.0 0.00 0.00 0.00 53 1015.3
20260502130204 50 324 5.0 10.0 0.00 0.00 0.00 53 1015.2
20260502123705 50 331 6.0 12.0 0.00 0.00 0.00 54 1015.1
20260502123204 49 313 4.0 12.0 0.00 0.00 0.00 54 1015.1
20260502122705 49 334 7.0 14.0 0.00 0.00 0.00 54 1015.1
20260502122205 49 355 5.0 15.0 0.00 0.00 0.00 54 1015.1
20260502121704 49 319 8.0 15.0 0.00 0.00 0.00 53 1015.0
20260502121205 49 297 9.0 15.0 0.00 0.00 0.00 53 1015.0
20260502120704 49 320 9.0 14.0 0.00 0.00 0.00 53 1015.0
20260502120204 49 325 7.0 14.0 0.00 0.00 0.00 54 1014.9
20260502115705 49 315 8.0 18.0 0.00 0.00 0.00 53 1014.7
20260502115205 49 335 8.0 18.0 0.00 0.00 0.00 54 1014.7
20260502114704 49 348 7.0 13.0 0.00 0.00 0.00 54 1014.8
20260502114204 49 322 7.0 16.0 0.00 0.00 0.00 54 1014.7
20260502113205 49 321 7.0 16.0 0.00 0.00 0.00 53 1014.4
20260502112705 49 316 8.0 14.0 0.00 0.00 0.00 52 1014.6
20260502112204 49 338 7.0 14.0 0.00 0.00 0.00 52 1014.6
20260502111704 49 323 8.0 15.0 0.00 0.00 0.00 52 1014.5
20260502111205 50 323 6.0 16.0 0.00 0.00 0.00 52 1014.5
20260502110705 50 304 10.0 16.0 0.00 0.00 0.00 50 1014.5
20260502110204 50 323 7.0 20.0 0.00 0.00 0.00 50 1014.4
20260502105705 50 351 7.0 20.0 0.00 0.00 0.00 49 1014.4
20260502105205 50 303 9.0 16.0 0.00 0.00 0.00 50 1014.4
20260502104705 50 309 9.0 16.0 0.00 0.00 0.00 49 1014.5
20260502104204 50 331 9.0 15.0 0.00 0.00 0.00 50 1014.5
20260502103704 50 334 10.0 15.0 0.00 0.00 0.00 50 1014.5
20260502103204 50 305 7.0 13.0 0.00 0.00 0.00 52 1014.6
20260502102705 50 317 7.0 12.0 0.00 0.00 0.00 52 1014.6
20260502102205 50 313 7.0 13.0 0.00 0.00 0.00 51 1014.5
20260502101704 50 305 9.0 13.0 0.00 0.00 0.00 51 1014.5
20260502101204 51 317 7.0 16.0 0.00 0.00 0.00 50 1014.5
20260502100705 51 335 9.0 16.0 0.00 0.00 0.00 50 1014.7
20260502100204 51 319 6.0 14.0 0.00 0.00 0.00 50 1014.6
20260502091205 52 342 7.0 14.0 0.00 0.00 0.00 52 1014.5
20260502090704 51 344 7.0 15.0 0.00 0.00 0.00 55 1014.6
20260502090204 51 310 7.0 15.0 0.00 0.00 0.00 56 1014.6
20260502071204 53 329 9.0 16.0 0.00 0.00 0.00 60 1013.9
20260502070704 53 327 7.0 16.0 0.00 0.00 0.00 60 1013.9
20260502070205 53 320 9.0 16.0 0.00 0.00 0.00 60 1014.0
20260502065205 53 330 7.0 16.0 0.00 0.00 0.00 60 1014.0
20260502064705 53 311 7.0 14.0 0.00 0.00 0.00 59 1013.9
20260502064204 53 310 6.0 10.0 0.00 0.00 0.00 59 1014.0
20260502063705 53 308 6.0 13.0 0.00 0.00 0.00 59 1014.0
20260502063205 53 302 7.0 13.0 0.00 0.00 0.00 59 1014.2
20260502062705 53 311 7.0 12.0 0.00 0.00 0.00 59 1014.2
20260502062204 53 305 6.0 12.0 0.00 0.00 0.00 59 1014.2
20260502061704 53 330 5.0 12.0 0.00 0.00 0.00 58 1014.3
20260502061205 53 303 7.0 12.0 0.00 0.00 0.00 58 1014.4
20260502060204 54 322 7.0 13.0 0.00 0.00 0.00 57 1014.5
20260502055704 54 330 6.0 13.0 0.00 0.00 0.00 57 1014.4
20260502055205 54 299 6.0 12.0 0.00 0.00 0.00 57 1014.3
20260502054704 54 327 8.0 14.0 0.00 0.00 0.00 56 1014.3
20260502053205 54 307 7.0 14.0 0.00 0.00 0.00 55 1014.2
20260502052704 55 308 8.0 14.0 0.00 0.00 0.00 55 1014.2
20260502052204 55 325 7.0 15.0 0.00 0.00 0.00 54 1014.2
20260502051704 55 325 8.0 15.0 0.00 0.00 0.00 54 1014.2
20260502050704 55 304 9.0 18.0 0.00 0.00 0.00 54 1014.2
20260502050204 55 349 9.0 18.0 0.00 0.00 0.00 53 1014.3
20260502045705 56 315 7.0 16.0 0.00 0.00 0.00 53 1014.4
20260502045205 56 335 9.0 16.0 0.00 0.00 0.00 54 1014.4
20260502044704 56 353 9.0 15.0 0.00 0.00 0.00 53 1014.4
20260502044204 56 331 9.0 15.0 0.00 0.00 0.00 55 1014.3
20260502043704 56 310 9.0 17.0 0.00 0.00 0.00 54 1014.2
20260502043204 56 320 7.0 21.0 0.00 0.00 0.00 55 1014.0
20260502041704 57 333 8.0 15.0 0.00 0.00 0.00 54 1014.0
20260502041204 57 333 9.0 15.0 0.00 0.00 0.00 54 1014.0
20260502040704 57 316 6.0 10.0 0.00 0.00 0.00 56 1013.9
20260502040205 57 336 3.0 15.0 0.00 0.00 0.00 56 1013.9
20260502035704 58 332 4.0 15.0 0.00 0.00 0.00 55 1014.0
20260502034705 58 307 1.0 7.0 0.00 0.00 0.00 54 1013.9
20260502034204 58 339 1.0 6.0 0.00 0.00 0.00 54 1014.0
20260502033704 58 7 1.0 10.0 0.00 0.00 0.00 53 1013.9
20260502033205 59 319 4.0 10.0 0.00 0.00 0.00 54 1013.8
20260502032705 58 306 7.0 10.0 0.00 0.00 0.00 53 1013.7
20260502032204 59 334 6.0 12.0 0.00 0.00 0.00 52 1013.5
20260502031704 59 334 7.0 12.0 0.00 0.00 0.00 52 1013.5
20260502030704 59 328 6.0 15.0 0.00 0.00 0.00 51 1013.3
20260502025705 59 310 9.0 16.0 0.00 0.00 0.00 49 1013.2
20260502025205 60 327 7.0 16.0 0.00 0.00 0.00 49 1013.2
20260502024704 60 339 5.0 14.0 0.00 0.00 0.00 49 1013.2
20260502024204 60 358 5.0 13.0 0.00 0.00 0.00 50 1013.1
20260502023704 60 321 7.0 13.0 0.00 0.00 0.00 50 1013.0
20260502023205 60 0 3.0 12.0 0.00 0.00 0.00 54 1012.9
20260502022704 60 316 2.0 8.0 0.00 0.00 0.00 56 1012.8
20260502022205 59 314 3.0 8.0 0.00 0.00 0.00 57 1012.6
20260502021704 60 109 0.0 0.0 0.00 0.00 0.00 58 1012.4
20260502020204 60 109 2.0 6.0 0.00 0.00 0.00 57 1012.0
20260502015204 59 166 1.0 3.0 0.00 0.00 0.00 57 1012.0
20260502014705 59 82 0.0 0.0 0.00 0.00 0.00 57 1012.0
20260502014204 59 82 0.0 3.0 0.00 0.00 0.00 58 1012.0
20260502013705 59 82 0.0 3.0 0.00 0.00 0.00 59 1012.0
20260502013204 59 97 0.0 3.0 0.00 0.00 0.00 58 1012.0
20260502012205 59 83 0.0 0.0 0.00 0.00 0.00 57 1011.7
20260502011704 60 83 0.0 0.0 0.00 0.00 0.00 56 1011.7
20260502011205 60 83 0.0 2.0 0.00 0.00 0.00 55 1011.5
20260502010704 60 83 0.0 3.0 0.00 0.00 0.00 53 1011.5
20260502010204 60 83 2.0 5.0 0.00 0.00 0.00 53 1011.5
20260502005704 60 142 0.0 5.0 0.00 0.00 0.00 52 1011.4
20260502005204 61 160 0.0 7.0 0.00 0.00 0.00 51 1011.3
20260502004705 61 160 2.0 7.0 0.00 0.00 0.00 51 1011.2
20260502003705 61 181 1.0 5.0 0.00 0.00 0.00 51 1011.2
20260502002705 62 144 0.0 8.0 0.00 0.00 0.00 50 1011.1
20260502002206 62 177 2.0 8.0 0.00 0.00 0.00 48 1011.0
20260502001704 62 121 3.0 6.0 0.00 0.00 0.00 47 1010.9
20260502001204 63 344 0.0 2.0 0.00 0.00 0.00 49 1010.9
20260502000705 63 344 0.0 7.0 0.00 0.00 0.00 48 1010.8
20260501235704 62 119 1.0 13.0 0.00 0.00 0.00 47 1010.4
20260501235204 63 171 3.0 13.0 0.00 0.00 0.00 45 1010.2
20260501234706 63 162 3.0 8.0 0.00 0.00 0.00 46 1010.0
20260501234205 63 163 1.0 8.0 0.00 0.00 0.00 47 1010.1
20260501233205 63 151 4.0 10.0 0.00 0.00 0.00 44 1010.1
20260501232704 64 141 2.0 10.0 0.00 0.00 0.00 44 1010.1
20260501232205 64 155 3.0 12.0 0.00 0.00 0.00 43 1010.2
20260501231705 64 115 2.0 12.0 0.00 0.00 0.00 43 1010.1
20260501231205 65 118 6.0 12.0 0.00 0.00 0.00 42 1010.2
20260501230704 65 145 7.0 12.0 0.00 0.00 0.00 42 1010.1
20260501230205 65 149 6.0 10.0 0.00 0.00 0.00 41 1010.1
20260501225704 66 174 3.0 9.0 0.00 0.00 0.00 41 1010.1
20260501225204 66 177 3.0 15.0 0.00 0.00 0.00 40 1010.1
20260501224705 66 148 2.0 15.0 0.00 0.00 0.00 41 1010.1
20260501224205 66 157 6.0 10.0 0.00 0.00 0.00 40 1010.1
20260501223704 66 193 5.0 10.0 0.00 0.00 0.00 40 1010.1
20260501223204 66 146 4.0 14.0 0.00 0.00 0.00 40 1010.1
20260501222705 66 185 6.0 14.0 0.00 0.00 0.00 38 1010.1
20260501222204 67 143 7.0 14.0 0.00 0.00 0.00 37 1010.2
20260501221704 66 150 6.0 14.0 0.00 0.00 0.00 38 1010.3
20260501221205 66 158 5.0 14.0 0.00 0.00 0.00 38 1010.3
20260501220704 66 171 8.0 14.0 0.00 0.00 0.00 37 1010.3
20260501220204 67 152 3.0 12.0 0.00 0.00 0.00 36 1010.3
20260501215204 67 115 4.0 14.0 0.00 0.00 0.00 36 1010.4
20260501214704 68 118 7.0 15.0 0.00 0.00 0.00 37 1010.4
20260501213705 68 143 8.0 16.0 0.00 0.00 0.00 35 1010.4
20260501213204 68 173 6.0 14.0 0.00 0.00 0.00 35 1010.6
20260501212704 68 176 9.0 14.0 0.00 0.00 0.00 35 1010.7
20260501211704 67 135 6.0 12.0 0.00 0.00 0.00 38 1010.7
20260501211205 66 146 5.0 13.0 0.00 0.00 0.00 38 1010.7
20260501210704 66 147 7.0 15.0 0.00 0.00 0.00 37 1010.8
20260501210204 67 150 10.0 15.0 0.00 0.00 0.00 36 1010.8
20260501205705 68 170 8.0 14.0 0.00 0.00 0.00 37 1010.8
20260501205204 69 186 7.0 16.0 0.00 0.00 0.00 37 1010.8
20260501204704 67 132 7.0 16.0 0.00 0.00 0.00 37 1010.9
20260501204204 67 154 7.0 15.0 0.00 0.00 0.00 36 1011.0
20260501203205 67 159 6.0 14.0 0.00 0.00 0.00 36 1011.0
20260501202704 67 160 5.0 14.0 0.00 0.00 0.00 38 1011.2
20260501202205 67 169 8.0 14.0 0.00 0.00 0.00 35 1011.2
20260501201704 68 140 6.0 13.0 0.00 0.00 0.00 33 1011.3
20260501201205 68 182 5.0 13.0 0.00 0.00 0.00 33 1011.4
20260501200704 69 174 6.0 13.0 0.00 0.00 0.00 33 1011.4
20260501200204 68 135 6.0 12.0 0.00 0.00 0.00 36 1011.7
20260501195204 69 188 6.0 13.0 0.00 0.00 0.00 36 1011.8
20260501194704 69 188 5.0 13.0 0.00 0.00 0.00 33 1012.0
20260501194205 68 122 3.0 12.0 0.00 0.00 0.00 37 1012.2
20260501193704 67 147 7.0 13.0 0.00 0.00 0.00 38 1012.3
20260501193204 67 153 4.0 13.0 0.00 0.00 0.00 34 1012.5
20260501192704 68 181 6.0 12.0 0.00 0.00 0.00 36 1012.4
20260501192204 66 189 3.0 10.0 0.00 0.00 0.00 33 1012.5
20260501190204 67 151 7.0 14.0 0.00 0.00 0.00 35 1012.9
20260501185704 66 159 6.0 14.0 0.00 0.00 0.00 37 1012.9
20260501185204 67 164 5.0 12.0 0.00 0.00 0.00 35 1013.1
20260501184705 67 154 5.0 12.0 0.00 0.00 0.00 36 1013.0
20260501184205 67 195 2.0 16.0 0.00 0.00 0.00 32 1013.1
20260501183204 66 176 5.0 14.0 0.00 0.00 0.00 38 1013.3
20260501182705 65 182 6.0 14.0 0.00 0.00 0.00 34 1013.4
20260501182204 65 238 6.0 14.0 0.00 0.00 0.00 36 1013.4
20260501181704 65 150 6.0 13.0 0.00 0.00 0.00 37 1013.5
20260501181204 66 132 7.0 13.0 0.00 0.00 0.00 37 1013.6
20260501180704 65 195 3.0 14.0 0.00 0.00 0.00 40 1013.6
20260501180204 66 205 4.0 14.0 0.00 0.00 0.00 36 1013.8
20260501175705 65 174 7.0 13.0 0.00 0.00 0.00 38 1013.9
20260501175205 65 198 5.0 13.0 0.00 0.00 0.00 43 1013.9
20260501173704 64 58 2.0 10.0 0.00 0.00 0.00 39 1014.2
20260501173204 64 220 3.0 10.0 0.00 0.00 0.00 41 1014.3
20260501172705 64 128 3.0 9.0 0.00 0.00 0.00 43 1014.3
20260501171204 64 120 6.0 13.0 0.00 0.00 0.00 44 1014.6
20260501170704 62 144 2.0 12.0 0.00 0.00 0.00 42 1014.8
20260501170204 63 156 7.0 12.0 0.00 0.00 0.00 43 1014.9
20260501165705 63 241 4.0 10.0 0.00 0.00 0.00 42 1015.0
20260501165205 62 196 3.0 12.0 0.00 0.00 0.00 42 1015.0
20260501164704 63 180 6.0 12.0 0.00 0.00 0.00 43 1015.1
20260501164205 62 252 2.0 10.0 0.00 0.00 0.00 41 1015.1
20260501163204 63 201 3.0 12.0 0.00 0.00 0.00 41 1015.4
20260501162704 62 167 6.0 12.0 0.00 0.00 0.00 46 1015.4
20260501162204 62 164 7.0 13.0 0.00 0.00 0.00 42 1015.5
20260501161204 61 213 1.0 13.0 0.00 0.00 0.00 42 1015.5
20260501155204 61 221 5.0 13.0 0.00 0.00 0.00 46 1015.8
20260501154705 60 202 5.0 13.0 0.00 0.00 0.00 43 1015.9
20260501154205 60 126 7.0 12.0 0.00 0.00 0.00 46 1015.9
20260501153704 60 166 3.0 12.0 0.00 0.00 0.00 44 1015.8
20260501153204 60 140 6.0 12.0 0.00 0.00 0.00 44 1016.0
20260501152704 60 150 5.0 10.0 0.00 0.00 0.00 45 1016.1
20260501152205 60 110 2.0 8.0 0.00 0.00 0.00 45 1016.2
20260501151704 59 165 4.0 8.0 0.00 0.00 0.00 46 1016.2
20260501151205 58 291 2.0 9.0 0.00 0.00 0.00 48 1016.2
20260501150704 58 116 3.0 9.0 0.00 0.00 0.00 47 1016.3
20260501150204 59 126 4.0 9.0 0.00 0.00 0.00 46 1016.3
20260501145705 58 157 3.0 8.0 0.00 0.00 0.00 45 1016.3
20260501145205 58 182 2.0 6.0 0.00 0.00 0.00 48 1016.3
20260501144704 57 150 0.0 5.0 0.00 0.00 0.00 50 1016.4
20260501143704 57 195 5.0 9.0 0.00 0.00 0.00 49 1016.5